Time,TemperatureF,DewpointF,PressureIn,WindDirection,WindDirectionDegrees,WindSpeedMPH,WindSpeedGustMPH,Humidity,HourlyPrecipIn,Conditions,Clouds,dailyrainin,SoftwareType,DateUTC
2013-08-22 00:01:00,69.0,47.0,30.05,WSW,247,2.0,9.0,45,0.00,,,0.00,Rainwise IP-100,2013-08-22 04:01:00,
2013-08-22 00:03:00,69.0,16.0,30.05,WSW,247,9.0,9.0,13,0.00,,,0.00,Rainwise IP-100,2013-08-22 04:03:00,
2013-08-22 00:08:00,69.0,46.0,30.05,WSW,247,0.0,10.0,43,0.00,,,0.00,Rainwise IP-100,2013-08-22 04:08:00,
2013-08-22 00:13:00,69.0,47.0,30.05,SW,225,1.0,8.0,45,0.00,,,0.00,Rainwise IP-100,2013-08-22 04:13:00,
2013-08-22 00:18:00,69.0,41.0,30.05,NW,315,1.0,7.0,36,0.00,,,0.00,Rainwise IP-100,2013-08-22 04:18:00,
2013-08-22 00:23:00,69.0,14.0,30.05,SW,225,0.0,9.0,11,0.00,,,0.00,Rainwise IP-100,2013-08-22 04:23:00,
2013-08-22 00:28:00,69.0,41.0,30.05,South,180,0.0,9.0,37,0.00,,,0.00,Rainwise IP-100,2013-08-22 04:28:00,
2013-08-22 00:33:00,69.0,41.0,30.05,West,270,2.0,10.0,37,0.00,,,0.00,Rainwise IP-100,2013-08-22 04:33:00,
2013-08-22 00:38:00,69.0,36.0,30.05,SW,225,4.0,7.0,30,0.00,,,0.00,Rainwise IP-100,2013-08-22 04:38:00,
2013-08-22 00:43:00,69.0,53.0,30.05,SSW,202,4.0,13.0,56,0.00,,,0.00,Rainwise IP-100,2013-08-22 04:43:00,
2013-08-22 00:48:00,69.0,23.0,30.05,SW,225,1.0,11.0,17,0.00,,,0.00,Rainwise IP-100,2013-08-22 04:48:00,
2013-08-22 00:53:00,69.0,43.0,30.05,WSW,247,7.0,12.0,39,0.00,,,0.00,Rainwise IP-100,2013-08-22 04:53:00,
2013-08-22 00:58:00,69.0,37.0,30.05,SSW,202,1.0,7.0,31,0.00,,,0.00,Rainwise IP-100,2013-08-22 04:58:00,
2013-08-22 01:03:00,69.0,50.0,30.05,WSW,247,7.0,9.0,51,0.00,,,0.00,Rainwise IP-100,2013-08-22 05:03:00,
2013-08-22 01:08:00,69.0,41.0,30.05,SSW,202,8.0,12.0,36,0.00,,,0.00,Rainwise IP-100,2013-08-22 05:08:00,
2013-08-22 01:13:00,70.0,47.0,30.05,SW,225,1.0,12.0,43,0.00,,,0.00,Rainwise IP-100,2013-08-22 05:13:00,
2013-08-22 01:19:00,69.0,29.0,30.05,WSW,247,4.0,12.0,22,0.00,,,0.00,Rainwise IP-100,2013-08-22 05:19:00,
2013-08-22 01:24:00,70.0,44.0,30.05,SW,225,6.0,18.0,39,0.00,,,0.00,Rainwise IP-100,2013-08-22 05:24:00,
2013-08-22 01:29:00,69.0,41.0,30.05,WSW,247,7.0,11.0,37,0.00,,,0.00,Rainwise IP-100,2013-08-22 05:29:00,
2013-08-22 01:34:00,69.0,51.0,30.06,WSW,247,0.0,14.0,53,0.00,,,0.00,Rainwise IP-100,2013-08-22 05:34:00,
2013-08-22 01:39:00,69.0,32.0,30.06,SW,225,2.0,10.0,26,0.00,,,0.00,Rainwise IP-100,2013-08-22 05:39:00,
2013-08-22 01:44:00,69.0,36.0,30.06,SW,225,1.0,14.0,29,0.00,,,0.00,Rainwise IP-100,2013-08-22 05:44:00,
2013-08-22 01:49:00,69.0,35.0,30.06,WSW,247,8.0,10.0,28,0.00,,,0.00,Rainwise IP-100,2013-08-22 05:49:00,
2013-08-22 01:54:00,69.0,46.0,30.06,North,360,0.0,13.0,43,0.00,,,0.00,Rainwise IP-100,2013-08-22 05:54:00,
2013-08-22 01:59:00,69.0,36.0,30.06,SW,225,2.0,13.0,30,0.00,,,0.00,Rainwise IP-100,2013-08-22 05:59:00,
2013-08-22 02:04:00,69.0,38.0,30.06,WSW,247,5.0,14.0,32,0.00,,,0.00,Rainwise IP-100,2013-08-22 06:04:00,
2013-08-22 02:09:00,69.0,39.0,30.06,West,270,0.0,13.0,34,0.00,,,0.00,Rainwise IP-100,2013-08-22 06:09:00,
2013-08-22 02:14:00,69.0,43.0,30.06,WSW,247,6.0,11.0,39,0.00,,,0.00,Rainwise IP-100,2013-08-22 06:14:00,
2013-08-22 02:19:00,69.0,29.0,30.06,West,270,6.0,10.0,23,0.00,,,0.00,Rainwise IP-100,2013-08-22 06:19:00,
2013-08-22 02:24:00,69.0,43.0,30.06,South,180,0.0,7.0,39,0.00,,,0.00,Rainwise IP-100,2013-08-22 06:24:00,
2013-08-22 02:29:00,68.0,40.0,30.06,SW,225,6.0,10.0,36,0.00,,,0.00,Rainwise IP-100,2013-08-22 06:29:00,
2013-08-22 02:35:00,68.0,41.0,30.06,WSW,247,6.0,12.0,37,0.00,,,0.00,Rainwise IP-100,2013-08-22 06:35:00,
2013-08-22 02:40:00,68.0,42.0,30.06,SW,225,3.0,11.0,39,0.00,,,0.00,Rainwise IP-100,2013-08-22 06:40:00,
2013-08-22 02:45:00,68.0,37.0,30.05,WNW,292,1.0,11.0,32,0.00,,,0.00,Rainwise IP-100,2013-08-22 06:45:00,
2013-08-22 02:50:00,68.0,33.0,30.05,NW,315,0.0,11.0,28,0.00,,,0.00,Rainwise IP-100,2013-08-22 06:50:00,
2013-08-22 02:55:00,68.0,43.0,30.06,SSW,202,4.0,12.0,41,0.00,,,0.00,Rainwise IP-100,2013-08-22 06:55:00,
2013-08-22 03:00:00,68.0,39.0,30.06,SE,135,2.0,12.0,35,0.00,,,0.00,Rainwise IP-100,2013-08-22 07:00:00,
2013-08-22 03:05:00,68.0,44.0,30.06,WSW,247,4.0,9.0,42,0.00,,,0.00,Rainwise IP-100,2013-08-22 07:05:00,
2013-08-22 03:10:00,68.0,42.0,30.06,West,270,5.0,15.0,39,0.00,,,0.00,Rainwise IP-100,2013-08-22 07:10:00,
2013-08-22 03:15:00,68.0,38.0,30.06,SW,225,0.0,12.0,34,0.00,,,0.00,Rainwise IP-100,2013-08-22 07:15:00,
2013-08-22 03:20:00,68.0,38.0,30.06,West,270,6.0,12.0,34,0.00,,,0.00,Rainwise IP-100,2013-08-22 07:20:00,
2013-08-22 03:25:00,68.0,38.0,30.06,West,270,0.0,9.0,34,0.00,,,0.00,Rainwise IP-100,2013-08-22 07:25:00,
2013-08-22 03:30:00,68.0,37.0,30.06,West,270,5.0,10.0,32,0.00,,,0.00,Rainwise IP-100,2013-08-22 07:30:00,
2013-08-22 03:35:00,68.0,38.0,30.05,SW,225,3.0,10.0,34,0.00,,,0.00,Rainwise IP-100,2013-08-22 07:35:00,
2013-08-22 03:40:00,68.0,37.0,30.05,SSW,202,6.0,9.0,32,0.00,,,0.00,Rainwise IP-100,2013-08-22 07:40:00,
2013-08-22 03:45:00,68.0,41.0,30.05,WSW,247,6.0,13.0,38,0.00,,,0.00,Rainwise IP-100,2013-08-22 07:45:00,
2013-08-22 03:51:00,69.0,39.0,30.05,WSW,247,4.0,10.0,34,0.00,,,0.00,Rainwise IP-100,2013-08-22 07:51:00,
2013-08-22 03:56:00,69.0,41.0,30.05,West,270,1.0,13.0,37,0.00,,,0.00,Rainwise IP-100,2013-08-22 07:56:00,
2013-08-22 04:01:00,68.0,36.0,30.05,South,180,5.0,11.0,30,0.00,,,0.00,Rainwise IP-100,2013-08-22 08:01:00,
2013-08-22 04:06:00,68.0,33.0,30.04,WSW,247,12.0,12.0,27,0.00,,,0.00,Rainwise IP-100,2013-08-22 08:06:00,
2013-08-22 04:11:00,69.0,41.0,30.04,SW,225,3.0,12.0,37,0.00,,,0.00,Rainwise IP-100,2013-08-22 08:11:00,
2013-08-22 04:16:00,69.0,24.0,30.04,West,270,6.0,10.0,18,0.00,,,0.00,Rainwise IP-100,2013-08-22 08:16:00,
2013-08-22 04:21:00,69.0,37.0,30.04,WNW,292,7.0,10.0,31,0.00,,,0.00,Rainwise IP-100,2013-08-22 08:21:00,
2013-08-22 04:26:00,69.0,28.0,30.04,NW,315,7.0,10.0,21,0.00,,,0.00,Rainwise IP-100,2013-08-22 08:26:00,
2013-08-22 04:31:00,69.0,36.0,30.04,South,180,0.0,11.0,30,0.00,,,0.00,Rainwise IP-100,2013-08-22 08:31:00,
2013-08-22 04:36:00,69.0,29.0,30.04,SW,225,3.0,12.0,23,0.00,,,0.00,Rainwise IP-100,2013-08-22 08:36:00,
2013-08-22 04:41:00,69.0,36.0,30.04,SW,225,0.0,12.0,29,0.00,,,0.00,Rainwise IP-100,2013-08-22 08:41:00,
2013-08-22 04:46:00,69.0,32.0,30.04,SW,225,7.0,11.0,25,0.00,,,0.00,Rainwise IP-100,2013-08-22 08:46:00,
2013-08-22 04:51:00,68.0,33.0,30.04,SW,225,0.0,12.0,27,0.00,,,0.00,Rainwise IP-100,2013-08-22 08:51:00,
2013-08-22 04:56:00,68.0,33.0,30.04,WSW,247,2.0,10.0,27,0.00,,,0.00,Rainwise IP-100,2013-08-22 08:56:00,
2013-08-22 05:01:00,68.0,31.0,30.04,West,270,7.0,9.0,25,0.00,,,0.00,Rainwise IP-100,2013-08-22 09:01:00,
2013-08-22 05:07:00,68.0,35.0,30.04,SW,225,0.0,10.0,29,0.00,,,0.00,Rainwise IP-100,2013-08-22 09:07:00,
2013-08-22 05:12:00,68.0,36.0,30.04,SSW,202,5.0,9.0,30,0.00,,,0.00,Rainwise IP-100,2013-08-22 09:12:00,
2013-08-22 05:17:00,68.0,33.0,30.04,SSW,202,6.0,12.0,28,0.00,,,0.00,Rainwise IP-100,2013-08-22 09:17:00,
2013-08-22 05:22:00,68.0,28.0,30.04,SW,225,0.0,8.0,22,0.00,,,0.00,Rainwise IP-100,2013-08-22 09:22:00,
2013-08-22 05:27:00,68.0,33.0,30.04,WSW,247,4.0,10.0,27,0.00,,,0.00,Rainwise IP-100,2013-08-22 09:27:00,
2013-08-22 05:32:00,68.0,33.0,30.04,WSW,247,2.0,8.0,27,0.00,,,0.00,Rainwise IP-100,2013-08-22 09:32:00,
2013-08-22 05:37:00,68.0,32.0,30.04,SW,225,0.0,9.0,26,0.00,,,0.00,Rainwise IP-100,2013-08-22 09:37:00,
2013-08-22 05:42:00,68.0,33.0,30.04,South,180,7.0,12.0,27,0.00,,,0.00,Rainwise IP-100,2013-08-22 09:42:00,
2013-08-22 05:47:00,68.0,26.0,30.03,SW,225,1.0,12.0,21,0.00,,,0.00,Rainwise IP-100,2013-08-22 09:47:00,
2013-08-22 05:52:00,68.0,32.0,30.03,SE,135,3.0,13.0,26,0.00,,,0.00,Rainwise IP-100,2013-08-22 09:52:00,
2013-08-22 05:57:00,68.0,31.0,30.03,SW,225,7.0,12.0,24,0.00,,,0.00,Rainwise IP-100,2013-08-22 09:57:00,
2013-08-22 06:02:00,68.0,31.0,30.03,SSW,202,6.0,10.0,25,0.00,,,0.00,Rainwise IP-100,2013-08-22 10:02:00,
2013-08-22 06:07:00,68.0,28.0,30.04,SW,225,0.0,13.0,22,0.00,,,0.00,Rainwise IP-100,2013-08-22 10:07:00,
2013-08-22 06:12:00,68.0,33.0,30.04,SW,225,8.0,10.0,27,0.00,,,0.00,Rainwise IP-100,2013-08-22 10:12:00,
2013-08-22 06:17:00,68.0,23.0,30.03,SSW,202,5.0,12.0,18,0.00,,,0.00,Rainwise IP-100,2013-08-22 10:17:00,
2013-08-22 06:23:00,68.0,31.0,30.03,SW,225,2.0,10.0,24,0.00,,,0.00,Rainwise IP-100,2013-08-22 10:23:00,
2013-08-22 06:28:00,68.0,31.0,30.03,SW,225,6.0,10.0,24,0.00,,,0.00,Rainwise IP-100,2013-08-22 10:28:00,
2013-08-22 06:33:00,68.0,31.0,30.03,WSW,247,2.0,9.0,24,0.00,,,0.00,Rainwise IP-100,2013-08-22 10:33:00,
2013-08-22 06:38:00,68.0,31.0,30.03,SW,225,10.0,14.0,25,0.00,,,0.00,Rainwise IP-100,2013-08-22 10:38:00,
2013-08-22 06:43:00,68.0,37.0,30.03,WSW,247,7.0,12.0,32,0.00,,,0.00,Rainwise IP-100,2013-08-22 10:43:00,
2013-08-22 06:48:00,68.0,31.0,30.02,SSW,202,6.0,13.0,24,0.00,,,0.00,Rainwise IP-100,2013-08-22 10:48:00,
2013-08-22 08:27:00,70.0,24.0,30.02,West,270,3.0,12.0,18,0.00,,,0.00,Rainwise IP-100,2013-08-22 12:27:00,
2013-08-22 08:32:00,71.0,26.0,30.02,SW,225,8.0,11.0,18,0.00,,,0.00,Rainwise IP-100,2013-08-22 12:32:00,
2013-08-22 08:37:00,71.0,33.0,30.02,West,270,2.0,11.0,25,0.00,,,0.00,Rainwise IP-100,2013-08-22 12:37:00,
2013-08-22 08:42:00,71.0,31.0,30.02,South,180,6.0,15.0,23,0.00,,,0.00,Rainwise IP-100,2013-08-22 12:42:00,
2013-08-22 08:47:00,71.0,31.0,30.02,SW,225,0.0,13.0,22,0.00,,,0.00,Rainwise IP-100,2013-08-22 12:47:00,
2013-08-22 08:52:00,71.0,31.0,30.02,SSW,202,5.0,13.0,22,0.00,,,0.00,Rainwise IP-100,2013-08-22 12:52:00,
2013-08-22 08:57:00,71.0,32.0,30.02,SW,225,6.0,13.0,24,0.00,,,0.00,Rainwise IP-100,2013-08-22 12:57:00,
2013-08-22 09:00:00,71.0,33.0,30.02,South,180,2.0,13.0,25,0.00,,,0.00,Rainwise IP-100,2013-08-22 13:00:00,
2013-08-22 09:05:00,71.0,29.0,30.02,SW,225,6.0,12.0,21,0.00,,,0.00,Rainwise IP-100,2013-08-22 13:05:00,
2013-08-22 09:10:00,72.0,33.0,30.02,WSW,247,3.0,13.0,24,0.00,,,0.00,Rainwise IP-100,2013-08-22 13:10:00,
2013-08-22 09:15:00,72.0,33.0,30.01,SW,225,7.0,11.0,24,0.00,,,0.00,Rainwise IP-100,2013-08-22 13:15:00,
2013-08-22 09:20:00,72.0,32.0,30.01,WSW,247,9.0,18.0,23,0.00,,,0.00,Rainwise IP-100,2013-08-22 13:20:00,
2013-08-22 09:26:00,72.0,31.0,30.01,South,180,5.0,15.0,21,0.00,,,0.00,Rainwise IP-100,2013-08-22 13:26:00,
2013-08-22 09:31:00,72.0,32.0,30.01,SW,225,2.0,15.0,23,0.00,,,0.00,Rainwise IP-100,2013-08-22 13:31:00,
2013-08-22 09:36:00,72.0,31.0,30.01,SE,135,6.0,15.0,21,0.00,,,0.00,Rainwise IP-100,2013-08-22 13:36:00,
2013-08-22 09:41:00,72.0,26.0,30.01,SW,225,6.0,15.0,18,0.00,,,0.00,Rainwise IP-100,2013-08-22 13:41:00,
2013-08-22 09:46:00,72.0,35.0,30.01,SW,225,6.0,12.0,25,0.00,,,0.00,Rainwise IP-100,2013-08-22 13:46:00,
2013-08-22 09:51:00,72.0,26.0,30.01,SW,225,5.0,13.0,18,0.00,,,0.00,Rainwise IP-100,2013-08-22 13:51:00,
2013-08-22 09:56:00,73.0,31.0,30.00,SSE,157,0.0,16.0,21,0.00,,,0.00,Rainwise IP-100,2013-08-22 13:56:00,
2013-08-22 10:01:00,73.0,29.0,30.00,SW,225,2.0,15.0,20,0.00,,,0.00,Rainwise IP-100,2013-08-22 14:01:00,
2013-08-22 10:06:00,74.0,26.0,30.00,SW,225,5.0,15.0,17,0.00,,,0.00,Rainwise IP-100,2013-08-22 14:06:00,
2013-08-22 10:11:00,74.0,33.0,30.00,WSW,247,10.0,18.0,22,0.00,,,0.00,Rainwise IP-100,2013-08-22 14:11:00,
2013-08-22 10:16:00,74.0,33.0,30.00,South,180,1.0,18.0,22,0.00,,,0.00,Rainwise IP-100,2013-08-22 14:16:00,
2013-08-22 10:21:00,74.0,33.0,30.00,SW,225,10.0,16.0,22,0.00,,,0.00,Rainwise IP-100,2013-08-22 14:21:00,
2013-08-22 10:26:00,74.0,35.0,30.00,SSW,202,6.0,16.0,24,0.00,,,0.00,Rainwise IP-100,2013-08-22 14:26:00,
2013-08-22 10:31:00,74.0,33.0,30.00,SW,225,2.0,13.0,22,0.00,,,0.00,Rainwise IP-100,2013-08-22 14:31:00,
2013-08-22 10:36:00,74.0,36.0,30.00,SW,225,7.0,16.0,25,0.00,,,0.00,Rainwise IP-100,2013-08-22 14:36:00,
2013-08-22 10:42:00,74.0,35.0,30.00,South,180,7.0,18.0,23,0.00,,,0.00,Rainwise IP-100,2013-08-22 14:42:00,
2013-08-22 10:47:00,74.0,35.0,30.00,SSW,202,2.0,17.0,24,0.00,,,0.00,Rainwise IP-100,2013-08-22 14:47:00,
2013-08-22 10:52:00,74.0,38.0,30.00,SW,225,5.0,13.0,27,0.00,,,0.00,Rainwise IP-100,2013-08-22 14:52:00,
2013-08-22 10:57:00,74.0,37.0,30.00,East,90,0.0,14.0,26,0.00,,,0.00,Rainwise IP-100,2013-08-22 14:57:00,
2013-08-22 11:02:00,74.0,31.0,30.00,West,270,6.0,16.0,20,0.00,,,0.00,Rainwise IP-100,2013-08-22 15:02:00,
2013-08-22 11:07:00,74.0,29.0,29.99,SW,225,9.0,13.0,19,0.00,,,0.00,Rainwise IP-100,2013-08-22 15:07:00,
2013-08-22 11:12:00,73.0,28.0,29.99,WSW,247,6.0,15.0,18,0.00,,,0.00,Rainwise IP-100,2013-08-22 15:12:00,
2013-08-22 11:17:00,73.0,24.0,30.00,SW,225,7.0,12.0,16,0.00,,,0.00,Rainwise IP-100,2013-08-22 15:17:00,
2013-08-22 11:22:00,73.0,28.0,30.00,SW,225,0.0,13.0,18,0.00,,,0.00,Rainwise IP-100,2013-08-22 15:22:00,
2013-08-22 11:27:00,73.0,24.0,30.00,SW,225,1.0,14.0,16,0.00,,,0.00,Rainwise IP-100,2013-08-22 15:27:00,
2013-08-22 11:32:00,73.0,29.0,30.00,WSW,247,1.0,14.0,20,0.00,,,0.00,Rainwise IP-100,2013-08-22 15:32:00,
2013-08-22 11:37:00,73.0,14.0,30.00,SW,225,13.0,15.0,10,0.00,,,0.00,Rainwise IP-100,2013-08-22 15:37:00,
2013-08-22 11:42:00,73.0,21.0,30.00,SW,225,6.0,15.0,14,0.00,,,0.00,Rainwise IP-100,2013-08-22 15:42:00,
2013-08-22 11:47:00,74.0,31.0,29.99,SW,225,7.0,14.0,20,0.00,,,0.00,Rainwise IP-100,2013-08-22 15:47:00,
2013-08-22 11:52:00,74.0,26.0,29.99,SW,225,6.0,15.0,16,0.00,,,0.00,Rainwise IP-100,2013-08-22 15:52:00,
2013-08-22 11:58:00,74.0,38.0,29.99,SW,225,10.0,15.0,27,0.00,,,0.00,Rainwise IP-100,2013-08-22 15:58:00,
2013-08-22 12:03:00,73.0,28.0,29.99,SW,225,5.0,20.0,18,0.00,,,0.00,Rainwise IP-100,2013-08-22 16:03:00,
2013-08-22 12:08:00,73.0,32.0,29.99,SW,225,13.0,16.0,22,0.00,,,0.00,Rainwise IP-100,2013-08-22 16:08:00,
2013-08-22 12:13:00,74.0,29.0,29.99,SW,225,0.0,19.0,19,0.00,,,0.00,Rainwise IP-100,2013-08-22 16:13:00,
2013-08-22 12:18:00,75.0,32.0,29.99,WSW,247,7.0,13.0,21,0.00,,,0.00,Rainwise IP-100,2013-08-22 16:18:00,
2013-08-22 12:23:00,75.0,11.0,29.99,WNW,292,9.0,15.0,8,0.00,,,0.00,Rainwise IP-100,2013-08-22 16:23:00,
2013-08-22 12:28:00,76.0,31.0,29.98,West,270,2.0,17.0,19,0.00,,,0.00,Rainwise IP-100,2013-08-22 16:28:00,
2013-08-22 12:33:00,74.0,38.0,29.98,WSW,247,7.0,16.0,27,0.00,,,0.00,Rainwise IP-100,2013-08-22 16:33:00,
2013-08-22 12:38:00,74.0,37.0,29.98,West,270,7.0,14.0,26,0.00,,,0.00,Rainwise IP-100,2013-08-22 16:38:00,
2013-08-22 12:43:00,74.0,21.0,29.98,NW,315,8.0,16.0,13,0.00,,,0.00,Rainwise IP-100,2013-08-22 16:43:00,
2013-08-22 12:48:00,73.0,35.0,29.98,NW,315,3.0,15.0,24,0.00,,,0.00,Rainwise IP-100,2013-08-22 16:48:00,
2013-08-22 12:53:00,73.0,45.0,29.99,West,270,7.0,14.0,36,0.00,,,0.00,Rainwise IP-100,2013-08-22 16:53:00,
2013-08-22 12:58:00,74.0,35.0,29.99,NNW,337,1.0,14.0,24,0.00,,,0.00,Rainwise IP-100,2013-08-22 16:58:00,
2013-08-22 13:03:00,74.0,28.0,29.99,SW,225,6.0,13.0,18,0.00,,,0.00,Rainwise IP-100,2013-08-22 17:03:00,
2013-08-22 13:08:00,74.0,38.0,29.98,SW,225,13.0,17.0,27,0.00,,,0.00,Rainwise IP-100,2013-08-22 17:08:00,
2013-08-22 13:14:00,74.0,40.0,29.98,SSW,202,12.0,20.0,29,0.00,,,0.00,Rainwise IP-100,2013-08-22 17:14:00,
2013-08-22 13:19:00,75.0,21.0,29.98,WSW,247,12.0,20.0,13,0.00,,,0.00,Rainwise IP-100,2013-08-22 17:19:00,
2013-08-22 13:24:00,74.0,38.0,29.98,WSW,247,6.0,18.0,27,0.00,,,0.00,Rainwise IP-100,2013-08-22 17:24:00,
2013-08-22 13:29:00,73.0,31.0,29.98,SSW,202,2.0,19.0,21,0.00,,,0.00,Rainwise IP-100,2013-08-22 17:29:00,
2013-08-22 13:34:00,74.0,41.0,29.97,SW,225,9.0,17.0,30,0.00,,,0.00,Rainwise IP-100,2013-08-22 17:34:00,
2013-08-22 13:39:00,74.0,39.0,29.97,West,270,9.0,16.0,28,0.00,,,0.00,Rainwise IP-100,2013-08-22 17:39:00,
2013-08-22 13:44:00,73.0,39.0,29.97,West,270,12.0,18.0,29,0.00,,,0.00,Rainwise IP-100,2013-08-22 17:44:00,
2013-08-22 13:49:00,74.0,24.0,29.97,SSW,202,6.0,20.0,15,0.00,,,0.00,Rainwise IP-100,2013-08-22 17:49:00,
2013-08-22 13:54:00,74.0,44.0,29.97,West,270,6.0,16.0,34,0.00,,,0.00,Rainwise IP-100,2013-08-22 17:54:00,
2013-08-22 13:59:00,74.0,41.0,29.97,West,270,7.0,13.0,30,0.00,,,0.00,Rainwise IP-100,2013-08-22 17:59:00,
2013-08-22 14:04:00,74.0,47.0,29.97,North,360,2.0,15.0,39,0.00,,,0.00,Rainwise IP-100,2013-08-22 18:04:00,
2013-08-22 14:09:00,74.0,33.0,29.97,West,270,13.0,15.0,22,0.00,,,0.00,Rainwise IP-100,2013-08-22 18:09:00,
2013-08-22 14:14:00,74.0,31.0,29.97,SW,225,3.0,19.0,20,0.00,,,0.00,Rainwise IP-100,2013-08-22 18:14:00,
2013-08-22 14:19:00,73.0,47.0,29.97,SW,225,4.0,15.0,40,0.00,,,0.00,Rainwise IP-100,2013-08-22 18:19:00,
2013-08-22 14:24:00,73.0,44.0,29.97,SW,225,5.0,15.0,35,0.00,,,0.00,Rainwise IP-100,2013-08-22 18:24:00,
2013-08-22 14:30:00,73.0,38.0,29.97,SW,225,10.0,19.0,28,0.00,,,0.00,Rainwise IP-100,2013-08-22 18:30:00,
2013-08-22 14:35:00,73.0,39.0,29.96,South,180,7.0,12.0,29,0.00,,,0.00,Rainwise IP-100,2013-08-22 18:35:00,
2013-08-22 14:40:00,73.0,37.0,29.96,SW,225,4.0,19.0,27,0.00,,,0.00,Rainwise IP-100,2013-08-22 18:40:00,
2013-08-22 14:45:00,73.0,42.0,29.96,South,180,7.0,16.0,33,0.00,,,0.00,Rainwise IP-100,2013-08-22 18:45:00,
2013-08-22 14:50:00,73.0,41.0,29.96,SW,225,3.0,12.0,32,0.00,,,0.00,Rainwise IP-100,2013-08-22 18:50:00,
2013-08-22 14:55:00,73.0,44.0,29.95,North,360,0.0,16.0,35,0.00,,,0.00,Rainwise IP-100,2013-08-22 18:55:00,
2013-08-22 15:00:00,73.0,38.0,29.95,West,270,7.0,17.0,28,0.00,,,0.00,Rainwise IP-100,2013-08-22 19:00:00,
2013-08-22 15:05:00,73.0,29.0,29.94,SW,225,4.0,17.0,20,0.00,,,0.00,Rainwise IP-100,2013-08-22 19:05:00,
2013-08-22 15:10:00,72.0,26.0,29.94,SW,225,7.0,16.0,18,0.00,,,0.00,Rainwise IP-100,2013-08-22 19:10:00,
2013-08-22 15:15:00,72.0,31.0,29.94,SW,225,13.0,13.0,22,0.00,,,0.00,Rainwise IP-100,2013-08-22 19:15:00,
2013-08-22 15:20:00,72.0,35.0,29.94,South,180,8.0,18.0,25,0.00,,,0.00,Rainwise IP-100,2013-08-22 19:20:00,
2013-08-22 15:25:00,72.0,40.0,29.95,SSW,202,9.0,15.0,32,0.00,,,0.00,Rainwise IP-100,2013-08-22 19:25:00,
2013-08-22 15:30:00,72.0,40.0,29.95,SSW,202,1.0,19.0,32,0.00,,,0.00,Rainwise IP-100,2013-08-22 19:30:00,
2013-08-22 15:35:00,73.0,41.0,29.94,WNW,292,1.0,16.0,32,0.00,,,0.00,Rainwise IP-100,2013-08-22 19:35:00,
2013-08-22 15:40:00,72.0,31.0,29.94,SW,225,9.0,17.0,21,0.00,,,0.00,Rainwise IP-100,2013-08-22 19:40:00,
2013-08-22 15:46:00,72.0,35.0,29.94,WSW,247,9.0,12.0,25,0.00,,,0.00,Rainwise IP-100,2013-08-22 19:46:00,
2013-08-22 15:51:00,72.0,36.0,29.94,West,270,5.0,13.0,26,0.00,,,0.00,Rainwise IP-100,2013-08-22 19:51:00,
2013-08-22 15:56:00,72.0,33.0,29.94,SW,225,12.0,12.0,24,0.00,,,0.00,Rainwise IP-100,2013-08-22 19:56:00,
2013-08-22 16:01:00,71.0,36.0,29.94,ESE,112,0.0,15.0,28,0.00,,,0.00,Rainwise IP-100,2013-08-22 20:01:00,
2013-08-22 16:06:00,71.0,35.0,29.95,SSW,202,3.0,12.0,26,0.00,,,0.00,Rainwise IP-100,2013-08-22 20:06:00,
2013-08-22 16:11:00,71.0,31.0,29.95,South,180,1.0,13.0,22,0.00,,,0.00,Rainwise IP-100,2013-08-22 20:11:00,
2013-08-22 16:16:00,71.0,39.0,29.94,SW,225,8.0,9.0,31,0.00,,,0.00,Rainwise IP-100,2013-08-22 20:16:00,
2013-08-22 16:21:00,71.0,38.0,29.94,West,270,5.0,11.0,30,0.00,,,0.00,Rainwise IP-100,2013-08-22 20:21:00,
2013-08-22 16:26:00,71.0,37.0,29.93,SW,225,4.0,9.0,29,0.00,,,0.00,Rainwise IP-100,2013-08-22 20:26:00,
2013-08-22 16:31:00,72.0,32.0,29.93,SSE,157,0.0,13.0,23,0.00,,,0.00,Rainwise IP-100,2013-08-22 20:31:00,
2013-08-22 16:36:00,72.0,35.0,29.93,South,180,2.0,13.0,25,0.00,,,0.00,Rainwise IP-100,2013-08-22 20:36:00,
2013-08-22 16:41:00,72.0,36.0,29.93,West,270,2.0,13.0,27,0.00,,,0.00,Rainwise IP-100,2013-08-22 20:41:00,
2013-08-22 16:46:00,72.0,39.0,29.93,SW,225,9.0,10.0,30,0.00,,,0.00,Rainwise IP-100,2013-08-22 20:46:00,
2013-08-22 16:51:00,72.0,39.0,29.93,West,270,3.0,13.0,30,0.00,,,0.00,Rainwise IP-100,2013-08-22 20:51:00,
2013-08-22 16:56:00,72.0,44.0,29.92,SSW,202,6.0,12.0,37,0.00,,,0.00,Rainwise IP-100,2013-08-22 20:56:00,
2013-08-22 17:02:00,72.0,43.0,29.92,SW,225,6.0,13.0,35,0.00,,,0.00,Rainwise IP-100,2013-08-22 21:02:00,
2013-08-22 17:07:00,72.0,26.0,29.92,SSW,202,7.0,12.0,18,0.00,,,0.00,Rainwise IP-100,2013-08-22 21:07:00,
2013-08-22 17:12:00,72.0,46.0,29.92,SW,225,6.0,10.0,39,0.00,,,0.00,Rainwise IP-100,2013-08-22 21:12:00,
2013-08-22 17:17:00,72.0,40.0,29.91,SE,135,6.0,13.0,32,0.00,,,0.00,Rainwise IP-100,2013-08-22 21:17:00,
2013-08-22 17:22:00,71.0,41.0,29.91,SW,225,9.0,15.0,34,0.00,,,0.00,Rainwise IP-100,2013-08-22 21:22:00,
2013-08-22 17:27:00,71.0,35.0,29.91,WSW,247,3.0,12.0,26,0.00,,,0.00,Rainwise IP-100,2013-08-22 21:27:00,
2013-08-22 17:32:00,71.0,11.0,29.91,SSW,202,3.0,14.0,9,0.00,,,0.00,Rainwise IP-100,2013-08-22 21:32:00,
2013-08-22 17:37:00,71.0,39.0,29.90,SW,225,6.0,13.0,32,0.00,,,0.00,Rainwise IP-100,2013-08-22 21:37:00,
2013-08-22 17:42:00,71.0,33.0,29.90,SSE,157,2.0,16.0,25,0.00,,,0.00,Rainwise IP-100,2013-08-22 21:42:00,
2013-08-22 17:47:00,71.0,43.0,29.90,SW,225,8.0,15.0,37,0.00,,,0.00,Rainwise IP-100,2013-08-22 21:47:00,
2013-08-22 17:52:00,71.0,39.0,29.90,SE,135,0.0,15.0,31,0.00,,,0.00,Rainwise IP-100,2013-08-22 21:52:00,
2013-08-22 17:57:00,71.0,33.0,29.89,SSW,202,3.0,15.0,25,0.00,,,0.00,Rainwise IP-100,2013-08-22 21:57:00,
2013-08-22 18:02:00,71.0,38.0,29.89,SW,225,6.0,14.0,30,0.00,,,0.00,Rainwise IP-100,2013-08-22 22:02:00,
2013-08-22 18:07:00,71.0,38.0,29.89,WSW,247,6.0,15.0,30,0.00,,,0.00,Rainwise IP-100,2013-08-22 22:07:00,
2013-08-22 18:12:00,71.0,32.0,29.89,SSW,202,10.0,12.0,24,0.00,,,0.00,Rainwise IP-100,2013-08-22 22:12:00,
2013-08-22 18:18:00,71.0,39.0,29.89,WSW,247,11.0,15.0,32,0.00,,,0.00,Rainwise IP-100,2013-08-22 22:18:00,
2013-08-22 18:23:00,71.0,31.0,29.89,SW,225,6.0,15.0,22,0.00,,,0.00,Rainwise IP-100,2013-08-22 22:23:00,
2013-08-22 18:28:00,71.0,41.0,29.89,WSW,247,7.0,16.0,34,0.00,,,0.00,Rainwise IP-100,2013-08-22 22:28:00,
2013-08-22 18:33:00,70.0,36.0,29.89,SW,225,9.0,19.0,28,0.00,,,0.00,Rainwise IP-100,2013-08-22 22:33:00,
2013-08-22 18:38:00,70.0,36.0,29.88,SW,225,16.0,16.0,28,0.00,,,0.00,Rainwise IP-100,2013-08-22 22:38:00,
2013-08-22 18:43:00,70.0,37.0,29.88,SW,225,7.0,17.0,30,0.00,,,0.00,Rainwise IP-100,2013-08-22 22:43:00,
2013-08-22 18:48:00,70.0,43.0,29.88,SSW,202,2.0,17.0,38,0.00,,,0.00,Rainwise IP-100,2013-08-22 22:48:00,
2013-08-22 18:53:00,70.0,45.0,29.88,SW,225,13.0,17.0,41,0.00,,,0.00,Rainwise IP-100,2013-08-22 22:53:00,
2013-08-22 18:58:00,70.0,42.0,29.88,SSW,202,13.0,17.0,37,0.00,,,0.00,Rainwise IP-100,2013-08-22 22:58:00,
2013-08-22 19:03:00,70.0,47.0,29.88,SW,225,10.0,16.0,45,0.00,,,0.00,Rainwise IP-100,2013-08-22 23:03:00,
2013-08-22 19:08:00,70.0,33.0,29.88,SW,225,12.0,15.0,25,0.00,,,0.00,Rainwise IP-100,2013-08-22 23:08:00,
2013-08-22 19:13:00,70.0,44.0,29.89,SW,225,6.0,16.0,39,0.00,,,0.00,Rainwise IP-100,2013-08-22 23:13:00,
2013-08-22 19:18:00,70.0,36.0,29.89,West,270,3.0,15.0,29,0.00,,,0.00,Rainwise IP-100,2013-08-22 23:18:00,
2013-08-22 19:23:00,70.0,38.0,29.89,SW,225,5.0,10.0,31,0.00,,,0.00,Rainwise IP-100,2013-08-22 23:23:00,
2013-08-22 19:28:00,70.0,37.0,29.89,South,180,4.0,12.0,30,0.00,,,0.00,Rainwise IP-100,2013-08-22 23:28:00,
2013-08-22 19:34:00,70.0,45.0,29.90,SE,135,1.0,10.0,40,0.00,,,0.00,Rainwise IP-100,2013-08-22 23:34:00,
2013-08-22 19:39:00,70.0,29.0,29.90,West,270,1.0,14.0,22,0.00,,,0.00,Rainwise IP-100,2013-08-22 23:39:00,
2013-08-22 19:44:00,70.0,47.0,29.90,South,180,2.0,12.0,43,0.00,,,0.00,Rainwise IP-100,2013-08-22 23:44:00,
2013-08-22 19:49:00,70.0,35.0,29.90,SW,225,3.0,11.0,27,0.00,,,0.00,Rainwise IP-100,2013-08-22 23:49:00,
2013-08-22 19:54:00,70.0,47.0,29.90,SW,225,3.0,11.0,43,0.00,,,0.00,Rainwise IP-100,2013-08-22 23:54:00,
2013-08-22 19:59:00,70.0,0.0,29.90,SW,225,6.0,13.0,6,0.00,,,0.00,Rainwise IP-100,2013-08-22 23:59:00,
2013-08-22 20:04:00,70.0,29.0,29.90,SE,135,0.0,9.0,22,0.00,,,0.00,Rainwise IP-100,2013-08-23 00:04:00,
2013-08-22 20:09:00,69.0,32.0,29.90,SSW,202,0.0,9.0,25,0.00,,,0.00,Rainwise IP-100,2013-08-23 00:09:00,
2013-08-22 20:14:00,70.0,23.0,29.91,South,180,2.0,9.0,16,0.00,,,0.00,Rainwise IP-100,2013-08-23 00:14:00,
2013-08-22 20:19:00,70.0,29.0,29.91,WSW,247,7.0,15.0,22,0.00,,,0.00,Rainwise IP-100,2013-08-23 00:19:00,
2013-08-22 20:24:00,70.0,36.0,29.91,SSW,202,1.0,12.0,29,0.00,,,0.00,Rainwise IP-100,2013-08-23 00:24:00,
2013-08-22 20:29:00,70.0,38.0,29.91,SW,225,4.0,10.0,31,0.00,,,0.00,Rainwise IP-100,2013-08-23 00:29:00,
2013-08-22 20:34:00,70.0,40.0,29.91,SW,225,6.0,12.0,34,0.00,,,0.00,Rainwise IP-100,2013-08-23 00:34:00,
2013-08-22 20:39:00,70.0,26.0,29.91,SSW,202,3.0,12.0,19,0.00,,,0.00,Rainwise IP-100,2013-08-23 00:39:00,
2013-08-22 20:44:00,70.0,33.0,29.91,SW,225,3.0,6.0,25,0.00,,,0.00,Rainwise IP-100,2013-08-23 00:44:00,
2013-08-22 20:50:00,70.0,24.0,29.91,SW,225,3.0,8.0,18,0.00,,,0.00,Rainwise IP-100,2013-08-23 00:50:00,
2013-08-22 20:55:00,70.0,39.0,29.91,SSW,202,2.0,10.0,32,0.00,,,0.00,Rainwise IP-100,2013-08-23 00:55:00,
2013-08-22 21:00:00,70.0,33.0,29.91,SW,225,1.0,9.0,26,0.00,,,0.00,Rainwise IP-100,2013-08-23 01:00:00,
2013-08-22 21:05:00,70.0,29.0,29.91,SW,225,6.0,9.0,21,0.00,,,0.00,Rainwise IP-100,2013-08-23 01:05:00,
2013-08-22 21:10:00,70.0,38.0,29.91,South,180,0.0,9.0,31,0.00,,,0.00,Rainwise IP-100,2013-08-23 01:10:00,
2013-08-22 21:15:00,70.0,32.0,29.91,SSW,202,6.0,12.0,24,0.00,,,0.00,Rainwise IP-100,2013-08-23 01:15:00,
2013-08-22 21:20:00,70.0,24.0,29.91,SW,225,2.0,10.0,18,0.00,,,0.00,Rainwise IP-100,2013-08-23 01:20:00,
2013-08-22 21:25:00,70.0,33.0,29.91,SW,225,10.0,12.0,26,0.00,,,0.00,Rainwise IP-100,2013-08-23 01:25:00,
2013-08-22 21:30:00,70.0,33.0,29.91,SW,225,5.0,15.0,25,0.00,,,0.00,Rainwise IP-100,2013-08-23 01:30:00,
2013-08-22 21:35:00,70.0,31.0,29.90,South,180,7.0,13.0,23,0.00,,,0.00,Rainwise IP-100,2013-08-23 01:35:00,
2013-08-22 21:40:00,70.0,23.0,29.90,SW,225,0.0,10.0,16,0.00,,,0.00,Rainwise IP-100,2013-08-23 01:40:00,
2013-08-22 21:45:00,70.0,35.0,29.90,SW,225,5.0,10.0,27,0.00,,,0.00,Rainwise IP-100,2013-08-23 01:45:00,
2013-08-22 21:50:00,70.0,24.0,29.90,SSW,202,4.0,12.0,18,0.00,,,0.00,Rainwise IP-100,2013-08-23 01:50:00,
2013-08-22 21:55:00,70.0,32.0,29.89,South,180,2.0,11.0,24,0.00,,,0.00,Rainwise IP-100,2013-08-23 01:55:00,
2013-08-22 22:00:00,70.0,28.0,29.89,SE,135,0.0,14.0,20,0.00,,,0.00,Rainwise IP-100,2013-08-23 02:00:00,
2013-08-22 22:06:00,70.0,35.0,29.88,SSW,202,6.0,15.0,27,0.00,,,0.00,Rainwise IP-100,2013-08-23 02:06:00,
2013-08-22 22:11:00,70.0,38.0,29.88,SW,225,9.0,15.0,31,0.00,,,0.00,Rainwise IP-100,2013-08-23 02:11:00,
2013-08-22 22:16:00,70.0,33.0,29.88,South,180,6.0,12.0,25,0.00,,,0.00,Rainwise IP-100,2013-08-23 02:16:00,
2013-08-22 22:21:00,70.0,24.0,29.88,SSW,202,4.0,15.0,18,0.00,,,0.00,Rainwise IP-100,2013-08-23 02:21:00,
2013-08-22 22:26:00,70.0,33.0,29.87,SW,225,6.0,12.0,26,0.00,,,0.00,Rainwise IP-100,2013-08-23 02:26:00,
2013-08-22 22:31:00,70.0,32.0,29.87,South,180,1.0,12.0,24,0.00,,,0.00,Rainwise IP-100,2013-08-23 02:31:00,
2013-08-22 22:36:00,70.0,33.0,29.87,SW,225,3.0,14.0,26,0.00,,,0.00,Rainwise IP-100,2013-08-23 02:36:00,
2013-08-22 22:41:00,70.0,35.0,29.87,SSW,202,7.0,12.0,27,0.00,,,0.00,Rainwise IP-100,2013-08-23 02:41:00,
2013-08-22 22:46:00,70.0,24.0,29.87,West,270,0.0,15.0,18,0.00,,,0.00,Rainwise IP-100,2013-08-23 02:46:00,
2013-08-22 22:51:00,70.0,23.0,29.87,SW,225,5.0,14.0,16,0.00,,,0.00,Rainwise IP-100,2013-08-23 02:51:00,
2013-08-22 22:56:00,70.0,21.0,29.88,SW,225,7.0,16.0,15,0.00,,,0.00,Rainwise IP-100,2013-08-23 02:56:00,
2013-08-22 23:01:00,70.0,29.0,29.88,SSW,202,2.0,10.0,21,0.00,,,0.00,Rainwise IP-100,2013-08-23 03:01:00,
2013-08-22 23:06:00,70.0,23.0,29.88,SW,225,6.0,13.0,16,0.00,,,0.00,Rainwise IP-100,2013-08-23 03:06:00,
2013-08-22 23:11:00,70.0,11.0,29.88,ESE,112,1.0,10.0,9,0.00,,,0.00,Rainwise IP-100,2013-08-23 03:11:00,
2013-08-22 23:16:00,70.0,33.0,29.87,SW,225,2.0,11.0,26,0.00,,,0.00,Rainwise IP-100,2013-08-23 03:16:00,
2013-08-22 23:22:00,69.0,16.0,29.87,SW,225,2.0,13.0,13,0.00,,,0.00,Rainwise IP-100,2013-08-23 03:22:00,
2013-08-22 23:27:00,69.0,32.0,29.87,SW,225,5.0,10.0,25,0.00,,,0.00,Rainwise IP-100,2013-08-23 03:27:00,
2013-08-22 23:32:00,69.0,24.0,29.87,WSW,247,1.0,11.0,18,0.00,,,0.00,Rainwise IP-100,2013-08-23 03:32:00,
2013-08-22 23:37:00,69.0,21.0,29.87,SW,225,3.0,11.0,16,0.00,,,0.00,Rainwise IP-100,2013-08-23 03:37:00,
2013-08-22 23:42:00,69.0,21.0,29.87,SW,225,0.0,13.0,16,0.00,,,0.00,Rainwise IP-100,2013-08-23 03:42:00,
2013-08-22 23:47:00,69.0,23.0,29.87,SSW,202,0.0,9.0,17,0.00,,,0.00,Rainwise IP-100,2013-08-23 03:47:00,
2013-08-22 23:52:00,70.0,11.0,29.87,SW,225,3.0,10.0,9,0.00,,,0.00,Rainwise IP-100,2013-08-23 03:52:00,
2013-08-22 23:57:00,70.0,26.0,29.86,SSW,202,7.0,9.0,19,0.00,,,0.00,Rainwise IP-100,2013-08-23 03:57:00,